TAP1711 LPPR-LPMA

Flight info

Callsign TAP1711
Flight time 1h 42m
Altitude 37000
Route ASMOV DCT DIRMA DCT VABEM DCT LIDRO
Aircraft A319/M-SDE3FGHIRWY/LB1

Departure

Time 2026-05-07 09:53
Airport Francisco de Sá Carneiro Airport (LPPR)

Arrival

Time 2026-05-07 11:36
Airport Cristiano Ronaldo International Airport (LPMA)
Time Latitude Longitude Altitude Speed Heading
2026-05-07 09:22 41.23593 -8.67219 235 ft 0 kts 89°
2026-05-07 09:41 41.23593 -8.67220 235 ft 1 kts 89°
2026-05-07 09:42 41.23593 -8.67250 235 ft 4 kts 89°
2026-05-07 09:42 41.23592 -8.67286 236 ft 3 kts 88°
2026-05-07 09:42 41.23591 -8.67315 239 ft 4 kts 73°
2026-05-07 09:42 41.23578 -8.67344 238 ft 4 kts 34°
2026-05-07 09:43 41.23554 -8.67360 235 ft 4 kts 27°
2026-05-07 09:43 41.23533 -8.67379 238 ft 4 kts 28°
2026-05-07 09:43 41.23508 -8.67390 235 ft 4 kts
2026-05-07 09:43 41.23482 -8.67386 237 ft 4 kts 345°
2026-05-07 09:44 41.23467 -8.67381 240 ft 0 kts 349°
2026-05-07 09:47 41.23478 -8.67384 238 ft 6 kts 349°
2026-05-07 09:47 41.23557 -8.67403 235 ft 13 kts 348°
2026-05-07 09:47 41.23641 -8.67426 237 ft 12 kts 348°
2026-05-07 09:47 41.23719 -8.67447 235 ft 11 kts 348°
2026-05-07 09:48 41.23801 -8.67468 235 ft 13 kts 349°
2026-05-07 09:48 41.23900 -8.67493 235 ft 16 kts 349°
2026-05-07 09:48 41.24015 -8.67525 235 ft 18 kts 349°
2026-05-07 09:48 41.24146 -8.67558 235 ft 20 kts 349°
2026-05-07 09:49 41.24265 -8.67638 235 ft 20 kts 305°
2026-05-07 09:49 41.24379 -8.67725 235 ft 20 kts 349°
2026-05-07 09:49 41.24514 -8.67760 235 ft 20 kts 349°
2026-05-07 09:49 41.24649 -8.67795 235 ft 20 kts 349°
2026-05-07 09:50 41.24772 -8.67831 235 ft 17 kts 341°
2026-05-07 09:50 41.24866 -8.67882 235 ft 13 kts 355°
2026-05-07 09:50 41.24942 -8.67927 236 ft 12 kts 345°
2026-05-07 09:50 41.25027 -8.67950 235 ft 13 kts 349°
2026-05-07 09:51 41.25116 -8.67972 235 ft 13 kts 349°
2026-05-07 09:51 41.25208 -8.67996 237 ft 14 kts 349°
2026-05-07 09:51 41.25306 -8.68023 235 ft 15 kts 348°
2026-05-07 09:51 41.25417 -8.68051 235 ft 17 kts 349°
2026-05-07 09:52 41.25539 -8.68083 235 ft 18 kts 349°
2026-05-07 09:52 41.25606 -8.68152 235 ft 13 kts 281°
2026-05-07 09:52 41.25593 -8.68281 235 ft 15 kts 259°
2026-05-07 09:52 41.25519 -8.68309 235 ft 16 kts 168°
2026-05-07 09:53 41.25187 -8.68224 234 ft 86 kts 169°
2026-05-07 09:53 41.24378 -8.68013 242 ft 147 kts 169°
2026-05-07 09:53 41.23304 -8.67726 617 ft 164 kts 171°
2026-05-07 09:53 41.22151 -8.67425 1223 ft 173 kts 170°
2026-05-07 09:54 41.20926 -8.67108 1752 ft 189 kts 170°
2026-05-07 09:54 41.19577 -8.66760 2206 ft 206 kts 170°
2026-05-07 09:54 41.18143 -8.66464 2871 ft 213 kts 179°
2026-05-07 09:54 41.16615 -8.66887 3258 ft 239 kts 207°
2026-05-07 09:55 41.15275 -8.68334 3955 ft 258 kts 222°
2026-05-07 09:55 41.13922 -8.69950 4872 ft 264 kts 220°
2026-05-07 09:55 41.12515 -8.71527 5915 ft 266 kts 218°
2026-05-07 09:55 41.11081 -8.73089 6853 ft 269 kts 218°
2026-05-07 09:56 41.09621 -8.74671 7747 ft 273 kts 218°
2026-05-07 09:56 41.08143 -8.76279 8634 ft 277 kts 218°
2026-05-07 09:56 41.06640 -8.77923 9519 ft 282 kts 218°
2026-05-07 09:56 41.05112 -8.79600 10231 ft 293 kts 219°
2026-05-07 09:57 41.03480 -8.81397 10525 ft 317 kts 219°
2026-05-07 09:57 41.01726 -8.83335 10770 ft 340 kts 219°
2026-05-07 09:57 40.99864 -8.85395 11220 ft 354 kts 219°
2026-05-07 09:57 40.97955 -8.87504 11913 ft 359 kts 219°
2026-05-07 09:58 40.96023 -8.89632 12663 ft 363 kts 219°
2026-05-07 09:58 40.94070 -8.91781 13404 ft 367 kts 220°
2026-05-07 09:58 40.92093 -8.93953 14088 ft 371 kts 220°
2026-05-07 09:58 40.90098 -8.96146 14747 ft 375 kts 220°
2026-05-07 09:59 40.88088 -8.98355 15403 ft 378 kts 220°
2026-05-07 09:59 40.86057 -9.00584 16055 ft 381 kts 220°
2026-05-07 09:59 40.84007 -9.02833 16702 ft 385 kts 221°
2026-05-07 09:59 40.81940 -9.05103 17340 ft 388 kts 221°
2026-05-07 10:00 40.79854 -9.07392 17974 ft 392 kts 221°
2026-05-07 10:00 40.77746 -9.09700 18550 ft 396 kts 221°
2026-05-07 10:00 40.75616 -9.12032 19089 ft 399 kts 221°
2026-05-07 10:00 40.73468 -9.14384 19609 ft 403 kts 221°
2026-05-07 10:01 40.71297 -9.16753 20112 ft 407 kts 221°
2026-05-07 10:01 40.69103 -9.19140 20613 ft 411 kts 221°
2026-05-07 10:01 40.66886 -9.21548 21094 ft 415 kts 222°
2026-05-07 10:01 40.64650 -9.23977 21575 ft 419 kts 222°
2026-05-07 10:02 40.63160 -9.25598 21877 ft 421 kts 222°
2026-05-07 10:02 40.60894 -9.28068 22334 ft 425 kts 223°
2026-05-07 10:02 40.57861 -9.31367 22931 ft 430 kts 223°
2026-05-07 10:02 40.55546 -9.33876 23371 ft 433 kts 223°
2026-05-07 10:03 40.53971 -9.35580 23636 ft 435 kts 223°
2026-05-07 10:03 40.50862 -9.38942 23921 ft 438 kts 223°
2026-05-07 10:03 40.48511 -9.41484 23955 ft 437 kts 223°
2026-05-07 10:03 40.46923 -9.43201 24010 ft 439 kts 223°
2026-05-07 10:04 40.44561 -9.45755 24434 ft 440 kts 223°
2026-05-07 10:04 40.42193 -9.48312 24843 ft 442 kts 223°
2026-05-07 10:04 40.39812 -9.50878 25241 ft 444 kts 224°
2026-05-07 10:04 40.37419 -9.53454 25630 ft 445 kts 224°
2026-05-07 10:05 40.35022 -9.56034 26009 ft 447 kts 224°
2026-05-07 10:05 40.32612 -9.58626 26383 ft 449 kts 224°
2026-05-07 10:05 40.30198 -9.61218 26751 ft 450 kts 224°
2026-05-07 10:05 40.27768 -9.63825 27122 ft 451 kts 224°
2026-05-07 10:06 40.25334 -9.66433 27478 ft 453 kts 224°
2026-05-07 10:06 40.22896 -9.69044 27832 ft 454 kts 225°
2026-05-07 10:06 40.20441 -9.71668 28181 ft 456 kts 225°
2026-05-07 10:06 40.17984 -9.74293 28521 ft 457 kts 225°
2026-05-07 10:07 40.15516 -9.76924 28847 ft 458 kts 225°
2026-05-07 10:07 40.13043 -9.79564 29218 ft 459 kts 225°
2026-05-07 10:07 40.10580 -9.82192 29708 ft 456 kts 225°
2026-05-07 10:07 40.08125 -9.84806 30186 ft 454 kts 225°
2026-05-07 10:08 40.05683 -9.87402 30614 ft 452 kts 225°
2026-05-07 10:08 40.03283 -9.89947 31031 ft 449 kts 225°
2026-05-07 10:08 40.00863 -9.92512 31457 ft 447 kts 225°
2026-05-07 10:08 39.98456 -9.95063 31895 ft 445 kts 225°
2026-05-07 10:09 39.96060 -9.97601 32321 ft 443 kts 225°
2026-05-07 10:09 39.93675 -10.00125 32748 ft 441 kts 226°
2026-05-07 10:09 39.91298 -10.02641 33174 ft 439 kts 226°
2026-05-07 10:09 39.88933 -10.05142 33600 ft 437 kts 226°
2026-05-07 10:10 39.86576 -10.07632 34015 ft 435 kts 226°
2026-05-07 10:10 39.84229 -10.10108 34366 ft 434 kts 226°
2026-05-07 10:10 39.81881 -10.12581 34690 ft 434 kts 225°
2026-05-07 10:10 39.79540 -10.15048 34994 ft 434 kts 225°
2026-05-07 10:11 39.77193 -10.17520 35293 ft 434 kts 225°
2026-05-07 10:11 39.74848 -10.19983 35580 ft 434 kts 225°
2026-05-07 10:11 39.72501 -10.22442 35855 ft 433 kts 225°
2026-05-07 10:11 39.70154 -10.24902 36124 ft 433 kts 224°
2026-05-07 10:12 39.67807 -10.27362 36385 ft 433 kts 224°
2026-05-07 10:12 39.65460 -10.29817 36638 ft 434 kts 224°
2026-05-07 10:12 39.63113 -10.32267 36881 ft 434 kts 224°
2026-05-07 10:13 39.58407 -10.37186 36978 ft 435 kts 224°
2026-05-07 10:13 39.53700 -10.42103 36969 ft 434 kts 224°
2026-05-07 10:14 39.48989 -10.47005 36976 ft 434 kts 224°
2026-05-07 10:14 39.44277 -10.51894 36975 ft 434 kts 224°
2026-05-07 10:15 39.39565 -10.56776 36971 ft 434 kts 224°
2026-05-07 10:15 39.34889 -10.61613 36968 ft 433 kts 224°
2026-05-07 10:16 39.30170 -10.66460 36972 ft 433 kts 223°
2026-05-07 10:16 39.25435 -10.71299 36959 ft 435 kts 223°
2026-05-07 10:17 39.20687 -10.76153 36958 ft 436 kts 223°
2026-05-07 10:17 39.15920 -10.81012 36959 ft 437 kts 223°
2026-05-07 10:18 39.11147 -10.85864 36962 ft 437 kts 223°
2026-05-07 10:18 39.06364 -10.90714 36970 ft 438 kts 223°
2026-05-07 10:19 39.01587 -10.95565 36982 ft 438 kts 223°
2026-05-07 10:19 38.96802 -11.00402 36992 ft 437 kts 223°
2026-05-07 10:20 38.92053 -11.05204 36994 ft 437 kts 223°
2026-05-07 10:20 38.87265 -11.10030 36995 ft 437 kts 223°
2026-05-07 10:21 38.82482 -11.14851 37003 ft 437 kts 223°
2026-05-07 10:21 38.77702 -11.19666 37002 ft 437 kts 223°
2026-05-07 10:22 38.72922 -11.24463 37002 ft 436 kts 223°
2026-05-07 10:22 38.68145 -11.29246 36999 ft 436 kts 223°
2026-05-07 10:23 38.63375 -11.34011 37002 ft 435 kts 223°
2026-05-07 10:23 38.58605 -11.38770 37008 ft 435 kts 223°
2026-05-07 10:24 38.53839 -11.43517 37005 ft 434 kts 223°
2026-05-07 10:24 38.49083 -11.48243 37004 ft 433 kts 223°
2026-05-07 10:25 38.44334 -11.52969 37000 ft 433 kts 223°
2026-05-07 10:25 38.39586 -11.57682 37004 ft 432 kts 223°
2026-05-07 10:26 38.34845 -11.62392 36999 ft 432 kts 223°
2026-05-07 10:26 38.30096 -11.67082 36996 ft 432 kts 222°
2026-05-07 10:27 38.25341 -11.71760 36993 ft 432 kts 222°
2026-05-07 10:27 38.20624 -11.76395 37001 ft 431 kts 222°
2026-05-07 10:28 38.15876 -11.81061 36998 ft 431 kts 222°
2026-05-07 10:28 38.11136 -11.85721 37000 ft 431 kts 222°
2026-05-07 10:29 38.06384 -11.90371 37003 ft 431 kts 222°
2026-05-07 10:29 38.01645 -11.95021 37007 ft 430 kts 223°
2026-05-07 10:30 37.94544 -12.01951 37018 ft 429 kts 222°
2026-05-07 10:30 37.89863 -12.06605 37020 ft 427 kts 223°
2026-05-07 10:31 37.85156 -12.11205 37015 ft 428 kts 222°
2026-05-07 10:31 37.80402 -12.15721 37020 ft 427 kts 221°
2026-05-07 10:32 37.75667 -12.20264 37011 ft 427 kts 222°
2026-05-07 10:32 37.70954 -12.24832 37013 ft 427 kts 222°
2026-05-07 10:33 37.66238 -12.29399 37013 ft 427 kts 222°
2026-05-07 10:33 37.61519 -12.33957 37012 ft 427 kts 222°
2026-05-07 10:34 37.56792 -12.38508 37018 ft 428 kts 222°
2026-05-07 10:34 37.52060 -12.43056 37016 ft 428 kts 222°
2026-05-07 10:35 37.47361 -12.47572 37012 ft 428 kts 222°
2026-05-07 10:35 37.42631 -12.52120 37009 ft 428 kts 221°
2026-05-07 10:36 37.37889 -12.56647 37010 ft 428 kts 221°
2026-05-07 10:36 37.33140 -12.61172 37014 ft 428 kts 221°
2026-05-07 10:37 37.28390 -12.65696 37015 ft 429 kts 221°
2026-05-07 10:37 37.23641 -12.70217 37015 ft 429 kts 221°
2026-05-07 10:38 37.18882 -12.74737 37015 ft 429 kts 221°
2026-05-07 10:38 37.14123 -12.79257 37014 ft 429 kts 221°
2026-05-07 10:39 37.09359 -12.83773 37016 ft 430 kts 221°
2026-05-07 10:39 37.04586 -12.88283 37017 ft 430 kts 221°
2026-05-07 10:40 36.99811 -12.92796 37014 ft 430 kts 221°
2026-05-07 10:40 36.95034 -12.97304 37017 ft 431 kts 221°
2026-05-07 10:41 36.90246 -13.01807 37019 ft 431 kts 221°
2026-05-07 10:41 36.85451 -13.06307 37025 ft 431 kts 221°
2026-05-07 10:42 36.80653 -13.10811 37021 ft 432 kts 221°
2026-05-07 10:42 36.75852 -13.15312 37025 ft 432 kts 221°
2026-05-07 10:43 36.71041 -13.19816 37024 ft 432 kts 221°
2026-05-07 10:43 36.66227 -13.24317 37023 ft 433 kts 221°
2026-05-07 10:44 36.61403 -13.28811 37024 ft 433 kts 221°
2026-05-07 10:44 36.56568 -13.33304 37025 ft 434 kts 221°
2026-05-07 10:45 36.51730 -13.37798 37024 ft 434 kts 221°
2026-05-07 10:45 36.46885 -13.42289 37024 ft 435 kts 221°
2026-05-07 10:46 36.42031 -13.46788 37025 ft 435 kts 221°
2026-05-07 10:46 36.37169 -13.51284 37026 ft 436 kts 221°
2026-05-07 10:47 36.32327 -13.55743 37023 ft 437 kts 220°
2026-05-07 10:47 36.27450 -13.60242 37026 ft 437 kts 221°
2026-05-07 10:48 36.22568 -13.64745 37025 ft 438 kts 220°
2026-05-07 10:48 36.17667 -13.69244 37029 ft 439 kts 220°
2026-05-07 10:49 36.12756 -13.73737 37025 ft 439 kts 220°
2026-05-07 10:49 36.07841 -13.78243 37027 ft 440 kts 220°
2026-05-07 10:50 36.02917 -13.82748 37025 ft 441 kts 220°
2026-05-07 10:50 35.97975 -13.87256 37025 ft 442 kts 220°
2026-05-07 10:51 35.93033 -13.91771 37023 ft 443 kts 221°
2026-05-07 10:51 35.88918 -13.95525 37024 ft 443 kts 220°
2026-05-07 10:52 35.83946 -14.00044 37034 ft 444 kts 220°
2026-05-07 10:52 35.78965 -14.04558 37024 ft 445 kts 220°
2026-05-07 10:53 35.73972 -14.09080 37023 ft 446 kts 220°
2026-05-07 10:53 35.68966 -14.13604 37020 ft 447 kts 220°
2026-05-07 10:54 35.63950 -14.18136 37024 ft 448 kts 220°
2026-05-07 10:54 35.58928 -14.22668 37025 ft 449 kts 220°
2026-05-07 10:55 35.53890 -14.27205 37022 ft 450 kts 220°
2026-05-07 10:55 35.48838 -14.31745 37027 ft 450 kts 220°
2026-05-07 10:56 35.43774 -14.36291 37031 ft 451 kts 220°
2026-05-07 10:56 35.38696 -14.40840 37024 ft 452 kts 220°
2026-05-07 10:57 35.33606 -14.45389 37026 ft 453 kts 221°
2026-05-07 10:57 35.28501 -14.49946 37027 ft 454 kts 220°
2026-05-07 10:58 35.23387 -14.54508 37028 ft 455 kts 220°
2026-05-07 10:58 35.18264 -14.59077 37030 ft 456 kts 220°
2026-05-07 10:59 35.13120 -14.63643 37031 ft 457 kts 220°
2026-05-07 10:59 35.07997 -14.68184 37033 ft 458 kts 220°
2026-05-07 11:00 35.02831 -14.72758 37031 ft 459 kts 220°
2026-05-07 11:00 34.97650 -14.77341 37031 ft 460 kts 220°
2026-05-07 11:01 34.92458 -14.81935 37031 ft 462 kts 221°
2026-05-07 11:01 34.87253 -14.86533 37032 ft 463 kts 220°
2026-05-07 11:02 34.82029 -14.91133 37031 ft 464 kts 220°
2026-05-07 11:02 34.76788 -14.95738 37032 ft 465 kts 220°
2026-05-07 11:03 34.71535 -15.00350 37034 ft 466 kts 220°
2026-05-07 11:03 34.66265 -15.04967 37037 ft 467 kts 220°
2026-05-07 11:04 34.60977 -15.09589 37036 ft 469 kts 220°
2026-05-07 11:04 34.55691 -15.14208 37257 ft 462 kts 220°
2026-05-07 11:05 34.53062 -15.16496 37117 ft 467 kts 220°
2026-05-07 11:05 34.50428 -15.18789 37044 ft 469 kts 220°
2026-05-07 11:05 34.45100 -15.23433 37058 ft 472 kts 220°
2026-05-07 11:06 34.39770 -15.28068 37059 ft 472 kts 220°
2026-05-07 11:06 34.34434 -15.32692 37058 ft 472 kts 220°
2026-05-07 11:07 34.29092 -15.37314 37058 ft 472 kts 220°
2026-05-07 11:07 34.23754 -15.41930 37059 ft 472 kts 220°
2026-05-07 11:08 34.18451 -15.46519 37062 ft 472 kts 220°
2026-05-07 11:08 34.13114 -15.51121 37065 ft 471 kts 220°
2026-05-07 11:09 34.07775 -15.55718 37061 ft 471 kts 220°
2026-05-07 11:09 34.05102 -15.58018 36747 ft 474 kts 220°
2026-05-07 11:09 34.02435 -15.60311 36435 ft 468 kts 220°
2026-05-07 11:10 33.99782 -15.62587 35894 ft 468 kts 220°
2026-05-07 11:10 33.97116 -15.64876 34990 ft 472 kts 220°
2026-05-07 11:10 33.94429 -15.67182 34075 ft 477 kts 219°
2026-05-07 11:10 33.91717 -15.69507 33207 ft 478 kts 219°
2026-05-07 11:11 33.89023 -15.71808 32823 ft 469 kts 219°
2026-05-07 11:11 33.86402 -15.74037 32687 ft 455 kts 219°
2026-05-07 11:11 33.83847 -15.76207 32551 ft 443 kts 219°
2026-05-07 11:11 33.81368 -15.78314 32413 ft 430 kts 219°
2026-05-07 11:12 33.78956 -15.80368 32258 ft 420 kts 220°
2026-05-07 11:12 33.76591 -15.82389 31861 ft 415 kts 220°
2026-05-07 11:12 33.74249 -15.84396 31369 ft 414 kts 220°
2026-05-07 11:12 33.71903 -15.86405 30856 ft 413 kts 220°
2026-05-07 11:13 33.69562 -15.88405 30338 ft 413 kts 220°
2026-05-07 11:13 33.67218 -15.90397 29746 ft 413 kts 219°
2026-05-07 11:13 33.64873 -15.92383 29226 ft 410 kts 219°
2026-05-07 11:13 33.62553 -15.94347 28824 ft 405 kts 219°
2026-05-07 11:14 33.60259 -15.96293 28288 ft 404 kts 219°
2026-05-07 11:14 33.57959 -15.98246 27683 ft 405 kts 219°
2026-05-07 11:14 33.55655 -16.00199 27063 ft 406 kts 219°
2026-05-07 11:14 33.53356 -16.02148 26685 ft 401 kts 219°
2026-05-07 11:15 33.51110 -16.04046 26555 ft 389 kts 219°
2026-05-07 11:15 33.48935 -16.05880 26357 ft 377 kts 219°
2026-05-07 11:15 33.46869 -16.07627 25935 ft 372 kts 220°
2026-05-07 11:15 33.44766 -16.09407 25468 ft 368 kts 220°
2026-05-07 11:16 33.42684 -16.11169 24981 ft 365 kts 220°
2026-05-07 11:16 33.40622 -16.12911 24485 ft 362 kts 220°
2026-05-07 11:16 33.38569 -16.14641 23988 ft 359 kts 219°
2026-05-07 11:16 33.36536 -16.16350 23445 ft 356 kts 219°
2026-05-07 11:17 33.34520 -16.18043 22832 ft 352 kts 219°
2026-05-07 11:17 33.32554 -16.19696 22193 ft 348 kts 219°
2026-05-07 11:17 33.30588 -16.21351 21565 ft 344 kts 219°
2026-05-07 11:17 33.28644 -16.22988 20956 ft 340 kts 219°
2026-05-07 11:18 33.26724 -16.24605 20357 ft 335 kts 219°
2026-05-07 11:18 33.24820 -16.26209 19938 ft 334 kts 219°
2026-05-07 11:18 33.22930 -16.27795 19585 ft 331 kts 219°
2026-05-07 11:18 33.21056 -16.29368 19247 ft 328 kts 219°
2026-05-07 11:19 33.19198 -16.30926 18903 ft 326 kts 219°
2026-05-07 11:19 33.17349 -16.32476 18552 ft 323 kts 219°
2026-05-07 11:19 33.15514 -16.34013 18177 ft 321 kts 218°
2026-05-07 11:19 33.13697 -16.35534 17661 ft 318 kts 218°
2026-05-07 11:20 33.11887 -16.37050 16932 ft 318 kts 218°
2026-05-07 11:20 33.10080 -16.38564 16298 ft 316 kts 218°
2026-05-07 11:20 33.08290 -16.40066 15735 ft 313 kts 218°
2026-05-07 11:20 33.06513 -16.41553 15187 ft 311 kts 218°
2026-05-07 11:21 33.04773 -16.43004 14664 ft 308 kts 218°
2026-05-07 11:21 33.03032 -16.44454 14137 ft 306 kts 218°
2026-05-07 11:21 33.01292 -16.45902 13655 ft 304 kts 218°
2026-05-07 11:21 32.99563 -16.47340 13148 ft 302 kts 218°
2026-05-07 11:22 32.97846 -16.48771 12638 ft 301 kts 218°
2026-05-07 11:22 32.96138 -16.50195 12122 ft 299 kts 218°
2026-05-07 11:22 32.94435 -16.51616 11630 ft 298 kts 218°
2026-05-07 11:22 32.92856 -16.52933 11169 ft 296 kts 218°
2026-05-07 11:23 32.91148 -16.54353 10762 ft 291 kts 218°
2026-05-07 11:23 32.89512 -16.55708 10517 ft 281 kts 218°
2026-05-07 11:23 32.87933 -16.57016 10274 ft 272 kts 218°
2026-05-07 11:23 32.86410 -16.58280 10038 ft 263 kts 218°
2026-05-07 11:24 32.84975 -16.59549 9862 ft 248 kts 228°
2026-05-07 11:24 32.84061 -16.61174 9730 ft 230 kts 252°
2026-05-07 11:24 32.83787 -16.63007 9575 ft 227 kts 274°
2026-05-07 11:24 32.84157 -16.64897 8940 ft 246 kts 297°
2026-05-07 11:25 32.85252 -16.66508 8251 ft 255 kts 322°
2026-05-07 11:25 32.86865 -16.67370 7946 ft 254 kts 347°
2026-05-07 11:25 32.88586 -16.67349 7687 ft 252 kts 12°
2026-05-07 11:25 32.90154 -16.66431 7348 ft 255 kts 36°
2026-05-07 11:26 32.91490 -16.65043 6973 ft 255 kts 40°
2026-05-07 11:26 32.92796 -16.63610 6600 ft 254 kts 40°
2026-05-07 11:26 32.94084 -16.62178 6235 ft 253 kts 40°
2026-05-07 11:26 32.95363 -16.60756 5868 ft 251 kts 40°
2026-05-07 11:27 32.96560 -16.59251 5509 ft 251 kts 54°
2026-05-07 11:27 32.97169 -16.57316 5182 ft 252 kts 82°
2026-05-07 11:27 32.96984 -16.55258 5116 ft 254 kts 108°
2026-05-07 11:27 32.96057 -16.53462 5116 ft 258 kts 135°
2026-05-07 11:28 32.94527 -16.52330 5096 ft 257 kts 163°
2026-05-07 11:28 32.92770 -16.52109 5015 ft 255 kts 189°
2026-05-07 11:28 32.91134 -16.52743 4894 ft 250 kts 214°
2026-05-07 11:28 32.89803 -16.54081 4762 ft 248 kts 227°
2026-05-07 11:29 32.88582 -16.55491 4635 ft 248 kts 227°
2026-05-07 11:29 32.87337 -16.56920 4502 ft 240 kts 227°
2026-05-07 11:29 32.86163 -16.58262 4368 ft 228 kts 227°
2026-05-07 11:29 32.84991 -16.59480 4245 ft 221 kts 218°
2026-05-07 11:30 32.83733 -16.60508 3906 ft 223 kts 217°
2026-05-07 11:30 32.82488 -16.61525 3684 ft 216 kts 216°
2026-05-07 11:30 32.81240 -16.62527 3444 ft 211 kts 217°
2026-05-07 11:30 32.80071 -16.63497 3253 ft 204 kts 217°
2026-05-07 11:31 32.78931 -16.64447 3141 ft 198 kts 217°
2026-05-07 11:31 32.77813 -16.65378 3057 ft 195 kts 217°
2026-05-07 11:31 32.76701 -16.66305 2922 ft 197 kts 217°
2026-05-07 11:31 32.75584 -16.67235 2516 ft 195 kts 217°
2026-05-07 11:32 32.73363 -16.69079 1787 ft 193 kts 217°
2026-05-07 11:32 32.72259 -16.69993 1432 ft 193 kts 216°
2026-05-07 11:32 32.71160 -16.70900 1091 ft 192 kts 216°
2026-05-07 11:33 32.70079 -16.71784 1100 ft 190 kts 215°
2026-05-07 11:33 32.68992 -16.72670 1307 ft 191 kts 216°
2026-05-07 11:33 32.67958 -16.73543 1423 ft 169 kts 217°
2026-05-07 11:33 32.67059 -16.74332 1506 ft 157 kts 217°
2026-05-07 11:34 32.66199 -16.75069 1501 ft 149 kts 217°
2026-05-07 11:34 32.65510 -16.75973 1494 ft 148 kts 247°
2026-05-07 11:34 32.65251 -16.77134 1371 ft 144 kts 264°
2026-05-07 11:34 32.65341 -16.78288 1267 ft 140 kts 297°
2026-05-07 11:35 32.65942 -16.79165 1075 ft 138 kts 318°
2026-05-07 11:35 32.66724 -16.79786 792 ft 136 kts 348°
2026-05-07 11:35 32.67656 -16.79680 564 ft 137 kts 18°
2026-05-07 11:35 32.68430 -16.79043 314 ft 136 kts 45°
2026-05-07 11:36 32.69093 -16.78252 170 ft 135 kts 43°
2026-05-07 11:36 32.69681 -16.77571 179 ft 99 kts 45°
2026-05-07 11:36 32.69970 -16.77230 194 ft 14 kts 52°
2026-05-07 11:36 32.69939 -16.77185 191 ft 8 kts 162°
2026-05-07 11:37 32.69873 -16.77178 195 ft 12 kts 181°
2026-05-07 11:37 32.69794 -16.77234 180 ft 15 kts 227°
2026-05-07 11:37 32.69713 -16.77335 171 ft 16 kts 225°
2026-05-07 11:37 32.69631 -16.77434 169 ft 17 kts 225°
2026-05-07 11:38 32.69548 -16.77534 169 ft 17 kts 225°
2026-05-07 11:38 32.69496 -16.77598 169 ft 14 kts 226°
2026-05-07 11:38 32.69458 -16.77633 169 ft 4 kts 185°
2026-05-07 11:38 32.69434 -16.77614 169 ft 5 kts 136°
2026-05-07 11:39 32.69413 -16.77592 169 ft 1 kts 138°
2026-05-07 11:39 32.69411 -16.77589 169 ft 0 kts 138°